TimeCST,TemperatureF,Dew PointF,Humidity,Sea Level PressureIn,VisibilityMPH,Wind Direction,Wind SpeedMPH,Gust SpeedMPH,PrecipitationIn,Events,Conditions,WindDirDegrees,DateUTC
12:53 AM,43.0,35.1,74,30.13,10.0,WSW,10.4,-,N/A,,Clear,240,2013-01-20 06:53:00
1:53 AM,39.9,34.0,79,30.16,10.0,WSW,9.2,-,N/A,,Clear,250,2013-01-20 07:53:00
2:53 AM,39.0,34.0,82,30.17,10.0,West,8.1,-,N/A,,Clear,260,2013-01-20 08:53:00
3:53 AM,37.0,33.1,86,30.18,10.0,West,5.8,-,N/A,,Clear,270,2013-01-20 09:53:00
4:53 AM,37.9,33.1,83,30.19,10.0,WNW,3.5,-,N/A,,Clear,290,2013-01-20 10:53:00
5:53 AM,39.2,32.0,75,30.21,10.0,NNW,4.6,-,N/A,,Clear,330,2013-01-20 11:53:00
6:53 AM,39.2,26.6,61,30.24,10.0,NNW,11.5,-,N/A,,Clear,340,2013-01-20 12:53:00
7:53 AM,37.9,28.0,68,30.27,10.0,North,8.1,-,N/A,,Clear,360,2013-01-20 13:53:00
8:53 AM,39.9,28.0,63,30.29,10.0,North,15.0,-,N/A,,Clear,10,2013-01-20 14:53:00
9:53 AM,41.0,25.0,53,30.31,10.0,NE,11.5,-,N/A,,Clear,40,2013-01-20 15:53:00
10:53 AM,42.1,25.0,51,30.30,10.0,NNE,8.1,-,N/A,,Clear,30,2013-01-20 16:53:00
11:53 AM,43.0,14.0,31,30.27,10.0,North,9.2,-,N/A,,Clear,10,2013-01-20 17:53:00
12:53 PM,45.0,10.0,24,30.24,10.0,NNE,10.4,-,N/A,,Clear,20,2013-01-20 18:53:00
1:53 PM,45.0,12.0,26,30.24,10.0,NNE,4.6,-,N/A,,Clear,30,2013-01-20 19:53:00
2:53 PM,46.0,10.9,24,30.23,10.0,Calm,Calm,-,N/A,,Clear,0,2013-01-20 20:53:00
3:53 PM,44.1,12.0,27,30.23,10.0,North,6.9,-,N/A,,Clear,350,2013-01-20 21:53:00
4:53 PM,39.9,12.0,32,30.25,10.0,North,6.9,-,N/A,,Clear,360,2013-01-20 22:53:00
5:53 PM,36.0,14.0,41,30.24,10.0,North,6.9,-,N/A,,Clear,350,2013-01-20 23:53:00
6:53 PM,34.0,16.0,48,30.25,10.0,North,5.8,-,N/A,,Clear,10,2013-01-21 00:53:00
7:53 PM,30.9,17.1,57,30.26,10.0,North,5.8,-,N/A,,Clear,10,2013-01-21 01:53:00
8:53 PM,30.9,17.1,57,30.23,10.0,NE,5.8,-,N/A,,Clear,40,2013-01-21 02:53:00
9:53 PM,28.9,18.0,64,30.23,10.0,North,6.9,-,N/A,,Clear,10,2013-01-21 03:53:00
10:53 PM,28.9,18.0,64,30.25,10.0,North,11.5,-,N/A,,Clear,360,2013-01-21 04:53:00
11:53 PM,27.0,18.0,69,30.25,10.0,North,8.1,-,N/A,,Clear,10,2013-01-21 05:53:00